Kosmos-1641

operational
NORAD ID: 15623 Int'l Des: 1985-023 Owner: GUKOS Country: SU
LEOCIRCULAR

Über Kosmos-1641

Beschreibung wird geladen...

Live-Position

3D-Globus wird geladen...

Nächste Überflüge

Höhenverlauf

Altitude vs Time

uPlot chart will show altitude changes over time

Zweizeiliger Elementsatz

1 15623U 85023G 26063.46987363 .00000011 00000-0 16539-3 0 9997
2 15623 74.0594 336.4179 0042960 77.2982 37.6885 12.54561023875597
Epoch: 4. März 2026 • Age: 20 hours

Aktueller Status

Höhe 1494.5 km
Geschwindigkeit 7.10 km/s
Subsatellitenpunkt -49.10°S, 79.28°E
Startdatum 21. März 1985
Alter 40.9 years
Typ other

Technische Details

Klassifizierung Payload
Masse 60.00 kg
Trockenmasse 60.00 kg
Gesamtmasse 60.00 kg
Länge 0.80 m
Durchmesser 0.80 m
Spannweite 0.80 m
Form Poly
Hersteller NPOPM
Bus-Typ Strela-1 11F625
Phasenstatus In Orbit
Besitzer/Staat GUKOS/SU

Große Konstellationen

Loading constellations...